Home   Weather   Cincinnati   Past weeks

Flag for USA Past Weather in Cincinnati, Ohio, USA — Yesterday and Last 2 Weeks

Now
21 °F

Clear.


Feels Like: 15 °F
Forecast: 22 / 32 °F
Wind: 5 mph from South

Location: Cincinnati Municipal Airport Lunken Field

Current Time: Dec 10, 2016 at 6:00:08 am

Latest Report: Dec 10, 2016 at 4:53 am


Visibility: 10 mi

Pressure: 30.59 "Hg

Humidity: 85%

Dew Point: 17 °F

Location of CincinnatiLocation

Past Weather in Cincinnati — Graph

°F

Cincinnati Temperature Yesterday

Maximum temperature yesterday: 27 °F (at 2:53 pm)
Minimum temperature yesterday: 18 °F (at 11:53 pm)
Average temperature yesterday: 25 °F

High & Low Weather Summary for the Past Weeks

 TemperatureHumidityPressure
High64 °F (Nov 29, 2:53 pm)100% (Nov 27, 12:04 am)30.61 "Hg (Nov 27, 12:04 am)
Low18 °F (Dec 9, 11:53 pm)49% (Dec 7, 3:53 pm)29.48 "Hg (Nov 28, 8:53 pm)
Average40 °F75%30.11 "Hg
* Reported Nov 25 3:53 am — Dec 10 3:53 am, Cincinnati, Weather by CustomWeather, © 2016

Note: Actual official high and low records may vary slightly from our data, if they occured in-between our weather recording intervals... More about our weather records

Advertising

Cincinnati Weather History for the Previous 24 Hours

Scroll right to see more
 ConditionsComfort  
Time TempWeatherWind HumidityBarometerVisibility
3:53 am
Sat, Dec 10
21 °FPassing clouds.5 mph85%30.61 "Hg10 mi
2:53 am20 °FPassing clouds.5 mph85%30.60 "Hg10 mi
1:53 am20 °FClear.6 mph85%30.60 "Hg10 mi
12:53 am18 °FClear.7 mph84%30.59 "Hg10 mi
11:53 pm
Fri, Dec 9
18 °FClear.7 mph88%30.58 "Hg10 mi
10:53 pm23 °FClear.6 mph72%30.58 "Hg10 mi
9:53 pm25 °FOvercast.5 mph66%30.58 "Hg10 mi
8:53 pm25 °FOvercast.8 mph66%30.60 "Hg10 mi
7:53 pm25 °FOvercast.9 mph66%30.60 "Hg10 mi
6:53 pm26 °FOvercast.10 mph63%30.60 "Hg10 mi
5:53 pm26 °FOvercast.10 mph66%30.58 "Hg10 mi
4:53 pm26 °FOvercast.9 mph66%30.58 "Hg10 mi
3:53 pm26 °FOvercast.8 mph66%30.58 "Hg10 mi
2:53 pm27 °FOvercast.6 mph61%30.57 "Hg10 mi
1:53 pm26 °FOvercast.10 mph63%30.57 "Hg10 mi
12:53 pm26 °FOvercast.12 mph63%30.58 "Hg10 mi
12:00 pm26 °FOvercast.12 mph63%30.58 "Hg10 mi
10:53 am25 °FLight snow. Overcast.13 mph66%30.61 "Hg5 mi
9:53 am24 °FLight snow. Overcast.9 mph65%30.60 "Hg5 mi
8:53 am23 °FLight snow. Overcast.10 mph72%30.58 "Hg5 mi
7:53 am23 °FOvercast.14 mph68%30.57 "Hg10 mi
6:53 am23 °FOvercast.12 mph68%30.55 "Hg10 mi
Weather by CustomWeather, © 2016

See weather overviewHow to use our weather pages